timestamp,waterbody_station,lease,latitude,longitude,deployment_start_date,deployment_end_date,sensor,depth,mooring,Temperature_degrees Celsius,Dissolved Oxygen_percent saturation
2022-03-11T00:00:00,Little Harbour-Melmerby Beach,,45.650204,-62.525184,2021-06-03,2022-06-19,HOBO-20291467,1.0,fixed,-0.451,
2022-03-11T00:00:00,Merigomish Harbour-Olding Island,,45.644008,-62.468235,2021-06-24,2022-05-26,VR2AR-549339,5.0,fixed,-1.6,
2022-03-11T00:15:00,Little Harbour-Melmerby Beach,,45.650204,-62.525184,2021-06-03,2022-06-19,HOBO-20291467,1.0,fixed,-0.423,
2022-03-11T00:30:00,Little Harbour-Melmerby Beach,,45.650204,-62.525184,2021-06-03,2022-06-19,HOBO-20291467,1.0,fixed,-0.451,
2022-03-11T00:45:00,Little Harbour-Melmerby Beach,,45.650204,-62.525184,2021-06-03,2022-06-19,HOBO-20291467,1.0,fixed,-0.451,
2022-03-11T01:00:00,Merigomish Harbour-Olding Island,,45.644008,-62.468235,2021-06-24,2022-05-26,VR2AR-549339,5.0,fixed,-1.6,
2022-03-11T01:00:00,Little Harbour-Melmerby Beach,,45.650204,-62.525184,2021-06-03,2022-06-19,HOBO-20291467,1.0,fixed,-0.479,
2022-03-11T01:15:00,Little Harbour-Melmerby Beach,,45.650204,-62.525184,2021-06-03,2022-06-19,HOBO-20291467,1.0,fixed,-0.479,
2022-03-11T01:30:00,Little Harbour-Melmerby Beach,,45.650204,-62.525184,2021-06-03,2022-06-19,HOBO-20291467,1.0,fixed,-0.479,
2022-03-11T01:45:00,Little Harbour-Melmerby Beach,,45.650204,-62.525184,2021-06-03,2022-06-19,HOBO-20291467,1.0,fixed,-0.479,
2022-03-11T02:00:00,Little Harbour-Melmerby Beach,,45.650204,-62.525184,2021-06-03,2022-06-19,HOBO-20291467,1.0,fixed,-0.451,
2022-03-11T02:00:00,Merigomish Harbour-Olding Island,,45.644008,-62.468235,2021-06-24,2022-05-26,VR2AR-549339,5.0,fixed,-1.7,
2022-03-11T02:15:00,Little Harbour-Melmerby Beach,,45.650204,-62.525184,2021-06-03,2022-06-19,HOBO-20291467,1.0,fixed,-0.423,
2022-03-11T02:30:00,Little Harbour-Melmerby Beach,,45.650204,-62.525184,2021-06-03,2022-06-19,HOBO-20291467,1.0,fixed,-0.423,
2022-03-11T02:45:00,Little Harbour-Melmerby Beach,,45.650204,-62.525184,2021-06-03,2022-06-19,HOBO-20291467,1.0,fixed,-0.339,
2022-03-11T03:00:00,Little Harbour-Melmerby Beach,,45.650204,-62.525184,2021-06-03,2022-06-19,HOBO-20291467,1.0,fixed,-0.311,
2022-03-11T03:00:00,Merigomish Harbour-Olding Island,,45.644008,-62.468235,2021-06-24,2022-05-26,VR2AR-549339,5.0,fixed,-1.5,
2022-03-11T03:15:00,Little Harbour-Melmerby Beach,,45.650204,-62.525184,2021-06-03,2022-06-19,HOBO-20291467,1.0,fixed,-0.255,
2022-03-11T03:30:00,Little Harbour-Melmerby Beach,,45.650204,-62.525184,2021-06-03,2022-06-19,HOBO-20291467,1.0,fixed,-0.311,
2022-03-11T03:45:00,Little Harbour-Melmerby Beach,,45.650204,-62.525184,2021-06-03,2022-06-19,HOBO-20291467,1.0,fixed,-0.255,
2022-03-11T04:00:00,Merigomish Harbour-Olding Island,,45.644008,-62.468235,2021-06-24,2022-05-26,VR2AR-549339,5.0,fixed,-1.5,
2022-03-11T04:00:00,Little Harbour-Melmerby Beach,,45.650204,-62.525184,2021-06-03,2022-06-19,HOBO-20291467,1.0,fixed,-0.367,
2022-03-11T04:15:00,Little Harbour-Melmerby Beach,,45.650204,-62.525184,2021-06-03,2022-06-19,HOBO-20291467,1.0,fixed,-0.367,
2022-03-11T04:30:00,Little Harbour-Melmerby Beach,,45.650204,-62.525184,2021-06-03,2022-06-19,HOBO-20291467,1.0,fixed,-0.367,
2022-03-11T04:45:00,Little Harbour-Melmerby Beach,,45.650204,-62.525184,2021-06-03,2022-06-19,HOBO-20291467,1.0,fixed,-0.367,
2022-03-11T05:00:00,Little Harbour-Melmerby Beach,,45.650204,-62.525184,2021-06-03,2022-06-19,HOBO-20291467,1.0,fixed,-0.311,
2022-03-11T05:00:00,Merigomish Harbour-Olding Island,,45.644008,-62.468235,2021-06-24,2022-05-26,VR2AR-549339,5.0,fixed,-1.4,
2022-03-11T05:15:00,Little Harbour-Melmerby Beach,,45.650204,-62.525184,2021-06-03,2022-06-19,HOBO-20291467,1.0,fixed,-0.339,
2022-03-11T05:30:00,Little Harbour-Melmerby Beach,,45.650204,-62.525184,2021-06-03,2022-06-19,HOBO-20291467,1.0,fixed,-0.367,
2022-03-11T05:45:00,Little Harbour-Melmerby Beach,,45.650204,-62.525184,2021-06-03,2022-06-19,HOBO-20291467,1.0,fixed,-0.367,
2022-03-11T06:00:00,Little Harbour-Melmerby Beach,,45.650204,-62.525184,2021-06-03,2022-06-19,HOBO-20291467,1.0,fixed,-0.423,
2022-03-11T06:00:00,Merigomish Harbour-Olding Island,,45.644008,-62.468235,2021-06-24,2022-05-26,VR2AR-549339,5.0,fixed,-1.5,
2022-03-11T06:15:00,Little Harbour-Melmerby Beach,,45.650204,-62.525184,2021-06-03,2022-06-19,HOBO-20291467,1.0,fixed,-0.423,
2022-03-11T06:30:00,Little Harbour-Melmerby Beach,,45.650204,-62.525184,2021-06-03,2022-06-19,HOBO-20291467,1.0,fixed,-0.479,
2022-03-11T06:45:00,Little Harbour-Melmerby Beach,,45.650204,-62.525184,2021-06-03,2022-06-19,HOBO-20291467,1.0,fixed,-0.479,
2022-03-11T07:00:00,Little Harbour-Melmerby Beach,,45.650204,-62.525184,2021-06-03,2022-06-19,HOBO-20291467,1.0,fixed,-0.507,
2022-03-11T07:00:00,Merigomish Harbour-Olding Island,,45.644008,-62.468235,2021-06-24,2022-05-26,VR2AR-549339,5.0,fixed,-1.5,
2022-03-11T07:15:00,Little Harbour-Melmerby Beach,,45.650204,-62.525184,2021-06-03,2022-06-19,HOBO-20291467,1.0,fixed,-0.507,
2022-03-11T07:30:00,Little Harbour-Melmerby Beach,,45.650204,-62.525184,2021-06-03,2022-06-19,HOBO-20291467,1.0,fixed,-0.507,
2022-03-11T07:45:00,Little Harbour-Melmerby Beach,,45.650204,-62.525184,2021-06-03,2022-06-19,HOBO-20291467,1.0,fixed,-0.479,
2022-03-11T08:00:00,Little Harbour-Melmerby Beach,,45.650204,-62.525184,2021-06-03,2022-06-19,HOBO-20291467,1.0,fixed,-0.479,
2022-03-11T08:00:00,Merigomish Harbour-Olding Island,,45.644008,-62.468235,2021-06-24,2022-05-26,VR2AR-549339,5.0,fixed,-1.5,
2022-03-11T08:15:00,Little Harbour-Melmerby Beach,,45.650204,-62.525184,2021-06-03,2022-06-19,HOBO-20291467,1.0,fixed,-0.479,
2022-03-11T08:30:00,Little Harbour-Melmerby Beach,,45.650204,-62.525184,2021-06-03,2022-06-19,HOBO-20291467,1.0,fixed,-0.479,
2022-03-11T08:45:00,Little Harbour-Melmerby Beach,,45.650204,-62.525184,2021-06-03,2022-06-19,HOBO-20291467,1.0,fixed,-0.479,
2022-03-11T09:00:00,Merigomish Harbour-Olding Island,,45.644008,-62.468235,2021-06-24,2022-05-26,VR2AR-549339,5.0,fixed,-1.5,
2022-03-11T09:00:00,Little Harbour-Melmerby Beach,,45.650204,-62.525184,2021-06-03,2022-06-19,HOBO-20291467,1.0,fixed,-0.423,
2022-03-11T09:15:00,Little Harbour-Melmerby Beach,,45.650204,-62.525184,2021-06-03,2022-06-19,HOBO-20291467,1.0,fixed,-0.423,
2022-03-11T09:30:00,Little Harbour-Melmerby Beach,,45.650204,-62.525184,2021-06-03,2022-06-19,HOBO-20291467,1.0,fixed,-0.423,
2022-03-11T09:45:00,Little Harbour-Melmerby Beach,,45.650204,-62.525184,2021-06-03,2022-06-19,HOBO-20291467,1.0,fixed,-0.423,
2022-03-11T10:00:00,Little Harbour-Melmerby Beach,,45.650204,-62.525184,2021-06-03,2022-06-19,HOBO-20291467,1.0,fixed,-0.367,
2022-03-11T10:00:00,Merigomish Harbour-Olding Island,,45.644008,-62.468235,2021-06-24,2022-05-26,VR2AR-549339,5.0,fixed,-1.5,
2022-03-11T10:15:00,Little Harbour-Melmerby Beach,,45.650204,-62.525184,2021-06-03,2022-06-19,HOBO-20291467,1.0,fixed,-0.367,
2022-03-11T10:30:00,Little Harbour-Melmerby Beach,,45.650204,-62.525184,2021-06-03,2022-06-19,HOBO-20291467,1.0,fixed,-0.339,
2022-03-11T10:45:00,Little Harbour-Melmerby Beach,,45.650204,-62.525184,2021-06-03,2022-06-19,HOBO-20291467,1.0,fixed,-0.311,
2022-03-11T11:00:00,Little Harbour-Melmerby Beach,,45.650204,-62.525184,2021-06-03,2022-06-19,HOBO-20291467,1.0,fixed,-0.283,
2022-03-11T11:00:00,Merigomish Harbour-Olding Island,,45.644008,-62.468235,2021-06-24,2022-05-26,VR2AR-549339,5.0,fixed,-1.5,
2022-03-11T11:15:00,Little Harbour-Melmerby Beach,,45.650204,-62.525184,2021-06-03,2022-06-19,HOBO-20291467,1.0,fixed,-0.255,
2022-03-11T11:30:00,Little Harbour-Melmerby Beach,,45.650204,-62.525184,2021-06-03,2022-06-19,HOBO-20291467,1.0,fixed,-0.199,
2022-03-11T11:45:00,Little Harbour-Melmerby Beach,,45.650204,-62.525184,2021-06-03,2022-06-19,HOBO-20291467,1.0,fixed,-0.227,
2022-03-11T12:00:00,Merigomish Harbour-Olding Island,,45.644008,-62.468235,2021-06-24,2022-05-26,VR2AR-549339,5.0,fixed,-1.5,
2022-03-11T12:00:00,Little Harbour-Melmerby Beach,,45.650204,-62.525184,2021-06-03,2022-06-19,HOBO-20291467,1.0,fixed,-0.255,
2022-03-11T12:15:00,Little Harbour-Melmerby Beach,,45.650204,-62.525184,2021-06-03,2022-06-19,HOBO-20291467,1.0,fixed,-0.311,
2022-03-11T12:30:00,Little Harbour-Melmerby Beach,,45.650204,-62.525184,2021-06-03,2022-06-19,HOBO-20291467,1.0,fixed,-0.339,
2022-03-11T12:45:00,Little Harbour-Melmerby Beach,,45.650204,-62.525184,2021-06-03,2022-06-19,HOBO-20291467,1.0,fixed,-0.283,
2022-03-11T13:00:00,Little Harbour-Melmerby Beach,,45.650204,-62.525184,2021-06-03,2022-06-19,HOBO-20291467,1.0,fixed,-0.227,
2022-03-11T13:00:00,Merigomish Harbour-Olding Island,,45.644008,-62.468235,2021-06-24,2022-05-26,VR2AR-549339,5.0,fixed,-1.5,
2022-03-11T13:15:00,Little Harbour-Melmerby Beach,,45.650204,-62.525184,2021-06-03,2022-06-19,HOBO-20291467,1.0,fixed,-0.199,
2022-03-11T13:30:00,Little Harbour-Melmerby Beach,,45.650204,-62.525184,2021-06-03,2022-06-19,HOBO-20291467,1.0,fixed,-0.143,
2022-03-11T13:45:00,Little Harbour-Melmerby Beach,,45.650204,-62.525184,2021-06-03,2022-06-19,HOBO-20291467,1.0,fixed,-0.143,
2022-03-11T14:00:00,Little Harbour-Melmerby Beach,,45.650204,-62.525184,2021-06-03,2022-06-19,HOBO-20291467,1.0,fixed,-0.032,
2022-03-11T14:00:00,Merigomish Harbour-Olding Island,,45.644008,-62.468235,2021-06-24,2022-05-26,VR2AR-549339,5.0,fixed,-1.5,
2022-03-11T14:15:00,Little Harbour-Melmerby Beach,,45.650204,-62.525184,2021-06-03,2022-06-19,HOBO-20291467,1.0,fixed,0.024,
2022-03-11T14:30:00,Little Harbour-Melmerby Beach,,45.650204,-62.525184,2021-06-03,2022-06-19,HOBO-20291467,1.0,fixed,0.079,
2022-03-11T14:45:00,Little Harbour-Melmerby Beach,,45.650204,-62.525184,2021-06-03,2022-06-19,HOBO-20291467,1.0,fixed,0.079,
2022-03-11T15:00:00,Merigomish Harbour-Olding Island,,45.644008,-62.468235,2021-06-24,2022-05-26,VR2AR-549339,5.0,fixed,-1.4,
2022-03-11T15:00:00,Little Harbour-Melmerby Beach,,45.650204,-62.525184,2021-06-03,2022-06-19,HOBO-20291467,1.0,fixed,0.024,
2022-03-11T15:15:00,Little Harbour-Melmerby Beach,,45.650204,-62.525184,2021-06-03,2022-06-19,HOBO-20291467,1.0,fixed,0.135,
2022-03-11T15:30:00,Little Harbour-Melmerby Beach,,45.650204,-62.525184,2021-06-03,2022-06-19,HOBO-20291467,1.0,fixed,0.246,
2022-03-11T15:45:00,Little Harbour-Melmerby Beach,,45.650204,-62.525184,2021-06-03,2022-06-19,HOBO-20291467,1.0,fixed,0.273,
2022-03-11T16:00:00,Little Harbour-Melmerby Beach,,45.650204,-62.525184,2021-06-03,2022-06-19,HOBO-20291467,1.0,fixed,0.273,
2022-03-11T16:00:00,Merigomish Harbour-Olding Island,,45.644008,-62.468235,2021-06-24,2022-05-26,VR2AR-549339,5.0,fixed,-1.4,
2022-03-11T16:15:00,Little Harbour-Melmerby Beach,,45.650204,-62.525184,2021-06-03,2022-06-19,HOBO-20291467,1.0,fixed,0.384,
2022-03-11T16:30:00,Little Harbour-Melmerby Beach,,45.650204,-62.525184,2021-06-03,2022-06-19,HOBO-20291467,1.0,fixed,0.273,
2022-03-11T16:45:00,Little Harbour-Melmerby Beach,,45.650204,-62.525184,2021-06-03,2022-06-19,HOBO-20291467,1.0,fixed,0.356,
2022-03-11T17:00:00,Merigomish Harbour-Olding Island,,45.644008,-62.468235,2021-06-24,2022-05-26,VR2AR-549339,5.0,fixed,-1.4,
2022-03-11T17:00:00,Little Harbour-Melmerby Beach,,45.650204,-62.525184,2021-06-03,2022-06-19,HOBO-20291467,1.0,fixed,0.384,
2022-03-11T17:15:00,Little Harbour-Melmerby Beach,,45.650204,-62.525184,2021-06-03,2022-06-19,HOBO-20291467,1.0,fixed,0.495,
2022-03-11T17:30:00,Little Harbour-Melmerby Beach,,45.650204,-62.525184,2021-06-03,2022-06-19,HOBO-20291467,1.0,fixed,0.77,
2022-03-11T17:45:00,Little Harbour-Melmerby Beach,,45.650204,-62.525184,2021-06-03,2022-06-19,HOBO-20291467,1.0,fixed,0.907,
2022-03-11T18:00:00,Little Harbour-Melmerby Beach,,45.650204,-62.525184,2021-06-03,2022-06-19,HOBO-20291467,1.0,fixed,0.907,
2022-03-11T18:00:00,Merigomish Harbour-Olding Island,,45.644008,-62.468235,2021-06-24,2022-05-26,VR2AR-549339,5.0,fixed,-1.4,
2022-03-11T18:15:00,Little Harbour-Melmerby Beach,,45.650204,-62.525184,2021-06-03,2022-06-19,HOBO-20291467,1.0,fixed,0.797,
2022-03-11T18:30:00,Little Harbour-Melmerby Beach,,45.650204,-62.525184,2021-06-03,2022-06-19,HOBO-20291467,1.0,fixed,0.852,
2022-03-11T18:45:00,Little Harbour-Melmerby Beach,,45.650204,-62.525184,2021-06-03,2022-06-19,HOBO-20291467,1.0,fixed,0.742,
2022-03-11T19:00:00,Little Harbour-Melmerby Beach,,45.650204,-62.525184,2021-06-03,2022-06-19,HOBO-20291467,1.0,fixed,0.577,
2022-03-11T19:00:00,Merigomish Harbour-Olding Island,,45.644008,-62.468235,2021-06-24,2022-05-26,VR2AR-549339,5.0,fixed,-1.4,
2022-03-11T19:15:00,Little Harbour-Melmerby Beach,,45.650204,-62.525184,2021-06-03,2022-06-19,HOBO-20291467,1.0,fixed,0.687,
2022-03-11T19:30:00,Little Harbour-Melmerby Beach,,45.650204,-62.525184,2021-06-03,2022-06-19,HOBO-20291467,1.0,fixed,0.77,
2022-03-11T19:45:00,Little Harbour-Melmerby Beach,,45.650204,-62.525184,2021-06-03,2022-06-19,HOBO-20291467,1.0,fixed,0.907,
2022-03-11T20:00:00,Merigomish Harbour-Olding Island,,45.644008,-62.468235,2021-06-24,2022-05-26,VR2AR-549339,5.0,fixed,-1.4,
2022-03-11T20:00:00,Little Harbour-Melmerby Beach,,45.650204,-62.525184,2021-06-03,2022-06-19,HOBO-20291467,1.0,fixed,0.797,
2022-03-11T20:15:00,Little Harbour-Melmerby Beach,,45.650204,-62.525184,2021-06-03,2022-06-19,HOBO-20291467,1.0,fixed,0.77,
2022-03-11T20:30:00,Little Harbour-Melmerby Beach,,45.650204,-62.525184,2021-06-03,2022-06-19,HOBO-20291467,1.0,fixed,0.797,
2022-03-11T20:45:00,Little Harbour-Melmerby Beach,,45.650204,-62.525184,2021-06-03,2022-06-19,HOBO-20291467,1.0,fixed,0.687,
2022-03-11T21:00:00,Little Harbour-Melmerby Beach,,45.650204,-62.525184,2021-06-03,2022-06-19,HOBO-20291467,1.0,fixed,0.522,
2022-03-11T21:00:00,Merigomish Harbour-Olding Island,,45.644008,-62.468235,2021-06-24,2022-05-26,VR2AR-549339,5.0,fixed,-1.4,
2022-03-11T21:15:00,Little Harbour-Melmerby Beach,,45.650204,-62.525184,2021-06-03,2022-06-19,HOBO-20291467,1.0,fixed,0.246,
2022-03-11T21:30:00,Little Harbour-Melmerby Beach,,45.650204,-62.525184,2021-06-03,2022-06-19,HOBO-20291467,1.0,fixed,0.107,
2022-03-11T21:45:00,Little Harbour-Melmerby Beach,,45.650204,-62.525184,2021-06-03,2022-06-19,HOBO-20291467,1.0,fixed,0.079,
2022-03-11T22:00:00,Little Harbour-Melmerby Beach,,45.650204,-62.525184,2021-06-03,2022-06-19,HOBO-20291467,1.0,fixed,0.079,
2022-03-11T22:00:00,Merigomish Harbour-Olding Island,,45.644008,-62.468235,2021-06-24,2022-05-26,VR2AR-549339,5.0,fixed,-1.4,
2022-03-11T22:15:00,Little Harbour-Melmerby Beach,,45.650204,-62.525184,2021-06-03,2022-06-19,HOBO-20291467,1.0,fixed,0.051,
2022-03-11T22:30:00,Little Harbour-Melmerby Beach,,45.650204,-62.525184,2021-06-03,2022-06-19,HOBO-20291467,1.0,fixed,-0.004,
2022-03-11T22:45:00,Little Harbour-Melmerby Beach,,45.650204,-62.525184,2021-06-03,2022-06-19,HOBO-20291467,1.0,fixed,0.024,
2022-03-11T23:00:00,Merigomish Harbour-Olding Island,,45.644008,-62.468235,2021-06-24,2022-05-26,VR2AR-549339,5.0,fixed,-1.4,
2022-03-11T23:00:00,Little Harbour-Melmerby Beach,,45.650204,-62.525184,2021-06-03,2022-06-19,HOBO-20291467,1.0,fixed,-0.004,
2022-03-11T23:15:00,Little Harbour-Melmerby Beach,,45.650204,-62.525184,2021-06-03,2022-06-19,HOBO-20291467,1.0,fixed,-0.004,
2022-03-11T23:30:00,Little Harbour-Melmerby Beach,,45.650204,-62.525184,2021-06-03,2022-06-19,HOBO-20291467,1.0,fixed,0.024,
2022-03-11T23:45:00,Little Harbour-Melmerby Beach,,45.650204,-62.525184,2021-06-03,2022-06-19,HOBO-20291467,1.0,fixed,0.079,
